Monroe, LA

11:12 AM CST on February 27, 2017 (GMT -0600)
Monroe Regional

Weather History for KMLU - August, 2013

Change the Weather History Date:

Tuesday, August 6, 2013

  Actual Average Record
Temperature  
Mean Temperature 87 °F 83 °F  
Max Temperature 98 °F 95 °F 104 °F (2011)
Min Temperature 76 °F 72 °F 60 °F (1969)
Degree Days  
Heating Degree Days 0 0  
Month to date heating degree days 0 0  
Since 1 June heating degree days 0 0  
Since 1 July heating degree days 0 0  
Cooling Degree Days 22 18  
Month to date cooling degree days 128 108  
Year to date cooling degree days 1419 1568  
Since 1 June cooling degree days 1069 1133  
Growing Degree Days 36 (Base 50)    
Moisture  
Dew Point 72 °F    
Average Humidity 67    
Maximum Humidity 94    
Minimum Humidity 40    
Precipitation  
Precipitation 0.00 in 0.11 in 1.75 in (1991)
Month to date precipitation T 0.58  
Year to date precipitation 32.23 32.88  
Snow  
Snow 0.00 in - - ()
Month to date snowfall 0.0  
Since 1 June snowfall 0.0  
Since 1 July snowfall 0.0  
Snow Depth 0.00 in    
Sea Level Pressure  
Sea Level Pressure 29.92 in    
Wind  
Wind Speed 6 mph (SSW)    
Max Wind Speed 13 mph    
Max Gust Speed 20 mph    
Visibility 10 miles    
Events      
T = Trace of Precipitation, MM = Missing Value Source: NWS Daily Summary

Daily Weather History Graph

Daily Weather History Graph

Search for Another Location

Airport or City:

Trip Planner

Search our weather history database for the weather conditions in past years. The results will help you decide how hot, cold, wet, or windy it might be!

Date:

Astronomy

Aug. 06, 2013 Rise Set
Actual Time 6:26 AM CDT 8:01 PM CDT
Civil Twilight 5:59 AM CDT 8:27 PM CDT
Nautical Twilight 5:27 AM CDT 8:59 PM CDT
Astronomical Twilight 4:54 AM CDT 9:32 PM CDT
Moon 6:14 AM CDT (8/6) 7:41 PM CDT (8/6)
Length of Visible Light 14h 28m
Length of Day
13h 35m
Waning Crescent, 0% of the Moon is Illuminated
Aug 6
Waning Crescent
Aug 6
New
Aug 14
First Quarter
Aug 20
Full
Aug 28
Last Quarter

Hourly Weather History & Observations

Time (CDT) Temp. Heat Index Dew Point Humidity Pressure Visibility Wind Dir Wind Speed Gust Speed Precip Events Conditions
12:53 AM 79.0 °F - 75.0 °F 88% 29.93 in 10.0 mi Calm Calm - N/A   Clear
1:53 AM 79.0 °F - 73.9 °F 84% 29.91 in 10.0 mi SSE 3.5 mph - N/A   Clear
2:53 AM 78.1 °F - 73.9 °F 87% 29.91 in 10.0 mi South 4.6 mph - N/A   Clear
3:53 AM 78.1 °F - 73.9 °F 87% 29.91 in 10.0 mi SSW 3.5 mph - N/A   Clear
4:53 AM 77.0 °F - 73.9 °F 90% 29.91 in 10.0 mi South 4.6 mph - N/A   Clear
5:53 AM 75.9 °F - 73.9 °F 94% 29.93 in 10.0 mi South 3.5 mph - N/A   Clear
6:53 AM 75.9 °F - 73.9 °F 94% 29.94 in 9.0 mi SSW 4.6 mph - N/A   Clear
7:53 AM 78.1 °F - 75.0 °F 90% 29.96 in 10.0 mi South 4.6 mph - N/A   Clear
8:53 AM 82.9 °F 90.2 °F 75.0 °F 77% 29.98 in 10.0 mi SW 5.8 mph - N/A   Clear
9:53 AM 88.0 °F 94.7 °F 72.0 °F 59% 29.97 in 10.0 mi WSW 10.4 mph - N/A   Clear
10:53 AM 90.0 °F 96.4 °F 71.1 °F 54% 29.96 in 10.0 mi West 9.2 mph - N/A   Clear
11:53 AM 93.0 °F 99.0 °F 70.0 °F 47% 29.96 in 10.0 mi West 10.4 mph - N/A   Clear
12:53 PM 95.0 °F 102.5 °F 71.1 °F 46% 29.95 in 10.0 mi West 8.1 mph - N/A   Clear
1:53 PM 96.1 °F 103.5 °F 71.1 °F 44% 29.94 in 10.0 mi West 6.9 mph - N/A   Clear
2:53 PM 95.0 °F 102.5 °F 71.1 °F 46% 29.92 in 10.0 mi NW 4.6 mph - N/A   Clear
3:53 PM 97.7 °F 104.3 °F 70.0 °F 40% 29.90 in 10.0 mi Variable 4.6 mph - N/A   Clear
4:53 PM 97.0 °F 103.5 °F 70.0 °F 41% 29.88 in 10.0 mi SSW 4.6 mph - N/A   Mostly Cloudy
5:53 PM 96.1 °F 101.6 °F 69.1 °F 41% 29.87 in 10.0 mi West 9.2 mph - N/A   Clear
6:53 PM 93.9 °F 100.8 °F 71.1 °F 47% 29.87 in 10.0 mi SW 6.9 mph - N/A   Clear
7:53 PM 90.0 °F 96.9 °F 72.0 °F 55% 29.89 in 10.0 mi South 4.6 mph - N/A   Clear
8:53 PM 86.0 °F 92.2 °F 72.0 °F 63% 29.89 in 10.0 mi South 4.6 mph - N/A   Clear
9:53 PM 84.0 °F 89.0 °F 71.1 °F 65% 29.90 in 10.0 mi SSE 4.6 mph - N/A   Clear
10:53 PM 82.9 °F 87.5 °F 71.1 °F 67% 29.91 in 10.0 mi South 6.9 mph - N/A   Clear
11:53 PM 81.0 °F 85.2 °F 72.0 °F 74% 29.91 in 10.0 mi South 4.6 mph - N/A   Clear